Miscellaneous Local Product
Issued by NWS Hastings, NE

Home | Current Version | Previous Version | Graphics & Text | Print | Product List | Glossary On
Versions: 1 2 3 4 5 6 7 8 9 10 11 12 13 14 15 16 17 18 19 20 21 22 23 24 25 26 27 28 29 30 31 32 33 34 35 36 37 38 39 40 41 42 43 44 45 46 47 48 49 50
000
AXUS43 KGID 051102
MISGRI

GID CWA HOURLY WEATHER ROUNDUP
NATIONAL WEATHER SERVICE HASTINGS NE
500 AM CST THU MAR 05 2015

NOTE: "FAIR" INDICATES FEW OR NO CLOUDS BELOW 12,000 FEET WITH NO
SIGNIFICANT WEATHER AND/OR OBSTRUCTIONS TO VISIBILITY.

...SOUTH CENTRAL NEBRASKA...

CITY           SKY/WX    TMP DP  RH WIND       PRES   REMARKS
GRAND ISLAND   CLEAR      4  -2  76 SW3       30.43S
HASTINGS       CLEAR      4  -4  69 CALM      30.40S
KEARNEY        CLEAR      3  -2  78 CALM      30.39R
ORD            CLEAR     -3  -8  79 S3        30.38S
YORK           CLEAR      1  -2  85 CALM      30.44S
AURORA         CLEAR      1  -5  76 CALM      30.42S
LEXINGTON      CLEAR      2  -2  83 CALM      30.36S
HOLDREGE       CLEAR      3  -4  74 E5        30.37S WCI  -7
HEBRON         CLEAR      5   0  78 CALM      30.47R

...NEBRASKA PANHANDLE...

CITY           SKY/WX    TMP DP  RH WIND       PRES   REMARKS
CHADRON        MOCLDY    -6 -11  79 SW3       30.19F
ALLIANCE       PTCLDY    -2  -7  79 SW6       30.17F WCI -14
SCOTTSBLUFF    PTCLDY     7   0  73 CALM      30.19F
SIDNEY         CLEAR      6   2  83 SW3       30.18F

...WESTERN AND NORTH CENTRAL NEBRASKA...

CITY           SKY/WX    TMP DP  RH WIND       PRES   REMARKS
VALENTINE      PTCLDY    -3  -7  82 SW5       30.28F WCI -13
AINSWORTH      CLEAR      3  -2  79 SW8       30.29F WCI -10
ONEILL         CLEAR     -3  -8  82 SW5       30.36S WCI -14
BROKEN BOW     CLEAR     -2  -9  72 CALM      30.33F
IMPERIAL         N/A      7   2  80 CALM      30.26F
NORTH PLATTE   CLEAR      1  -4  79 E6        30.31S WCI -10
MCCOOK         CLEAR     10   1  67 E5        30.34S WCI   2

...EASTERN NEBRASKA...

CITY           SKY/WX    TMP DP  RH WIND       PRES   REMARKS
NORFOLK        CLEAR     -3  -8  79 CALM      30.43S
SO SIOUX CITY  CLEAR     -1  -6  79 CALM      30.50R
TEKAMAH        CLEAR      0  -6  76 W3        30.51R
COLUMBUS       CLEAR      0 -11  60 CALM      30.46S
ALBION         PTCLDY     1  -6  71 CALM      30.41F
OMAHA EPPLEY   CLEAR      5  -2  72 CALM      30.51R
OFFUTT AFB     CLEAR      1  -4  80 CALM      30.50R
MILLARD        CLEAR      5  -3  69 CALM      30.50S
LINCOLN        CLEAR      2  -4  76 N5        30.50S WCI  -8
NEBRASKA CITY  CLEAR      6  -6  57 CALM      30.49S
BEATRICE       CLEAR      4  -1  78 CALM      30.48R
FALLS CITY     CLEAR      5  -3  69 NW3       30.52R

...NORTHERN KANSAS...

CITY           SKY/WX    TMP DP  RH WIND       PRES   REMARKS
GOODLAND       CLEAR     14   9  80 W10       30.27S WCI   1
HILL CITY      FAIR       8   1  73 CALM      30.38R
NORTON         SUNNY      9   0  66 CALM      30.36R
PHILLIPSBURG   CLEAR     10   3  72 NE5       30.41S WCI   2
SMITH CENTER   CLEAR      7   0  72 E9        30.43S WCI  -7
BELOIT         CLEAR      9   1  72 E5        30.46S WCI   0
HAYS           CLEAR     12  -2  52 CALM      30.38S
RUSSELL        CLEAR     11   5  77 E3        30.39S
CONCORDIA      PTCLDY     8   1  73 E3        30.46S
SALINA         CLEAR     15   3  59 NE5       30.49R WCI   8
TOPEKA         CLEAR     11   3  70 N5        30.54R WCI   3



USA.gov is the U.S. government's official web portal to all federal, state and local government web resources and services.